This is the latest recevied weather packets stored in our database for station/object KN6WGU. If no packets are shown the sender has not sent any weather packets the latest 10 day(s).
| Time | Temp. | Humidity | Pressure | Rain* | Wind** | Luminosity | Snow |
|---|---|---|---|---|---|---|---|
| 1777634776 | 6.11° C | 94% | 1006.2 hPa | 0 mm | - | 5 W/m² | - |
| 1777634473 | 6.11° C | 94% | 1006.1 hPa | 1.78 mm | - | 6 W/m² | - |
| 1777634170 | 6.11° C | 93% | 1006.1 hPa | 3.05 mm | - | 6 W/m² | - |
| 1777633866 | 6.11° C | 93% | 1006 hPa | 3.05 mm | - | 8 W/m² | - |
| 1777633564 | 6.11° C | 92% | 1006.2 hPa | 4.83 mm | - | 7 W/m² | - |
| 1777633262 | 6.11° C | 92% | 1006.4 hPa | 4.32 mm | - | 3 W/m² | - |
| 1777632959 | 6.11° C | 92% | 1006.2 hPa | 1.27 mm | - | 2 W/m² | - |
| 1777632655 | 6.11° C | 92% | 1006.3 hPa | 0 mm | - | 1 W/m² | - |
| 1777632352 | 6.11° C | 92% | 1006 hPa | 1.78 mm | - | 2 W/m² | - |
| 1777632049 | 6.11° C | 92% | 1006 hPa | 1.78 mm | - | 2 W/m² | - |
| 1777631747 | 6.11° C | 91% | 1006 hPa | 0 mm | - | 1 W/m² | - |
| 1777631444 | 6.11° C | 91% | 1006 hPa | 0 mm | - | 1 W/m² | - |
| 1777631141 | 6.11° C | 91% | 1006.1 hPa | 0 mm | - | 0 W/m² | - |
| 1777630838 | 6.11° C | 91% | 1006.2 hPa | 0 mm | - | 0 W/m² | - |
| 1777630534 | 6.67° C | 91% | 1006.1 hPa | 0 mm | - | 0 W/m² | - |
| 1777630231 | 6.67° C | 91% | 1006.3 hPa | 1.78 mm | - | 0 W/m² | - |
| 1777629929 | 6.67° C | 91% | 1006.4 hPa | 1.78 mm | - | 0 W/m² | - |
| 1777629627 | 6.67° C | 91% | 1006.2 hPa | 0 mm | - | 0 W/m² | - |
| 1777629322 | 6.67° C | 91% | 1006.4 hPa | 0 mm | - | 0 W/m² | - |
| 1777629018 | 6.67° C | 91% | 1006.4 hPa | 1.27 mm | - | 0 W/m² | - |
| 1777628715 | 6.67° C | 91% | 1006.3 hPa | 3.05 mm | - | 0 W/m² | - |
| 1777628411 | 6.67° C | 91% | 1006.5 hPa | 1.78 mm | - | 0 W/m² | - |
| 1777628107 | 6.67° C | 90% | 1006.4 hPa | 0 mm | - | 0 W/m² | - |
| 1777627803 | 6.67° C | 89% | 1006.9 hPa | 1.27 mm | - | 0 W/m² | - |
| 1777627501 | 6.67° C | 89% | 1006.6 hPa | 1.27 mm | - | 0 W/m² | - |
* Rain latest hour (hover to see other rain measurements)
** Current wind speed in m/s (hover to see current wind gust speed)